GFSSW_850_rhum_204.txt.gz
RH
43 44 42 42 38 35 32 27 25 24 41 46 42 41 40 34 30 31 31 29 28 30 27 28 26 23 22 20 20 17 14 13 14 14 12 12 13 12 26 24 40 46 48 60 74
40 40 39 35 34 28 27 24 24 32 49 47 44 42 40 37 31 32 30 28 29 30 30 27 24 23 18 18 17 14 14 13 12 12 13 13 14 14 12 14 20 31 51 57 73
39 37 36 33 32 26 24 24 32 50 52 48 46 43 42 39 35 28 29 30 31 30 26 26 23 21 17 19 17 15 15 14 13 14 15 14 14 14 12 12 12 14 15 56 40
37 35 32 29 29 27 25 28 47 56 52 49 47 46 44 40 32 32 30 31 31 31 29 26 23 19 18 18 20 20 16 16 15 17 18 17 16 14 13 13 12 14 18 39 51
34 34 32 31 32 32 30 43 56 56 52 50 48 45 41 42 37 32 32 30 31 30 28 26 23 22 20 20 21 20 18 20 20 20 19 19 19 17 16 16 19 23 33 33 48
32 33 32 32 37 42 45 57 57 54 51 50 47 45 43 39 36 34 32 33 32 31 29 28 26 26 23 22 22 22 22 21 20 18 21 18 15 18 14 26 25 37 28 33 48
33 32 34 36 43 51 57 60 55 51 48 48 47 43 42 42 37 36 33 30 29 30 29 30 30 27 26 21 25 23 23 16 16 18 16 17 17 15 17 24 19 26 33 40 47
34 32 35 40 50 58 60 57 53 48 48 45 42 45 45 38 38 39 36 30 31 28 30 29 31 30 27 26 23 22 22 21 18 18 17 18 16 15 16 17 16 16 20 29 35
33 33 38 48 57 64 63 56 52 48 45 44 46 46 41 40 40 37 35 34 32 30 30 29 32 28 27 23 20 24 18 18 17 20 19 20 20 15 18 20 17 16 16 17 22
33 34 42 56 64 68 67 58 51 46 44 46 45 51 42 42 43 37 35 34 35 33 30 32 29 26 24 23 21 18 17 16 20 17 22 21 19 15 16 17 17 17 17 15 17
34 37 48 64 70 73 69 60 57 51 56 48 45 49 45 45 41 35 36 33 33 32 31 29 28 26 21 22 22 25 24 23 18 16 22 24 21 17 16 17 17 15 15 16 24
38 44 57 71 77 78 79 78 69 61 61 53 52 54 40 41 38 32 27 28 29 30 28 31 26 20 24 28 30 28 28 24 20 22 26 21 21 16 15 15 14 14 18 30 34
50 54 67 78 83 82 82 74 64 51 56 49 42 36 37 36 32 29 32 29 25 28 27 22 25 26 28 26 30 26 29 26 27 22 18 18 16 14 13 14 15 24 34 42 46
61 68 76 85 88 85 81 70 75 60 58 42 27 34 36 36 29 29 29 28 25 25 27 27 25 27 25 27 24 23 22 25 24 21 19 16 20 13 11 13 15 31 42 50 56
76 80 85 90 99 92 87 87 64 56 98 34 30 34 34 28 26 24 28 27 21 23 26 20 26 26 24 18 23 19 21 19 19 19 20 18 18 14 12 12 12 30 46 57 68
88 92 92 97 97 96 98 92 60 81 99 45 25 27 27 26 23 23 25 26 25 22 23 21 23 20 16 16 19 16 18 16 17 20 23 16 15 15 12 16 20 35 42 51 57
88 97 100 98 96 96 100 71 97 99 52 40 29 26 24 24 23 21 22 24 22 27 28 22 21 18 22 20 16 19 19 24 26 27 26 18 18 15 16 21 27 36 44 43 42
86 90 100 100 100 99 100 98 99 79 61 26 22 23 26 23 23 20 22 24 23 22 24 28 33 19 16 18 18 19 18 26 32 28 23 19 24 18 29 36 43 46 42 36 35
100 100 100 97 100 100 99 100 85 73 57 38 31 31 34 23 27 24 25 26 21 22 29 30 28 18 18 17 16 21 23 18 28 24 31 24 18 21 30 36 43 43 39 36 32
100 99 99 92 99 100 99 90 75 55 45 42 60 48 49 37 32 30 33 23 20 18 21 22 32 19 18 19 18 20 16 28 25 38 37 24 22 20 28 29 39 42 38 34 31
100 100 96 100 100 100 97 84 67 62 51 55 62 67 55 52 33 38 39 31 20 21 20 20 25 28 24 22 21 22 22 23 23 26 38 41 34 28 29 32 34 31 29 27 26
100 100 100 100 99 99 90 76 70 59 51 55 54 54 61 56 50 48 56 40 27 22 27 24 31 34 28 19 20 20 23 23 34 38 36 43 58 25 27 29 27 25 22 24 25
99 98 100 100 98 98 79 73 69 69 65 65 66 55 47 55 84 75 61 40 28 29 31 31 38 48 50 34 27 31 27 26 29 36 46 64 52 25 25 26 26 23 25 26 27
99 100 100 100 100 80 81 83 82 73 64 67 72 73 76 78 67 82 76 53 42 35 48 48 48 57 59 51 51 42 30 28 33 56 57 54 57 36 33 30 24 26 26 27 29
100 97 86 100 97 84 70 74 82 96 76 72 88 78 78 98 95 99 86 89 87 74 68 73 86 60 50 47 48 46 43 39 47 55 68 56 41 27 24 24 26 27 27 28 30
98 98 100 90 74 92 85 92 80 69 84 94 90 77 77 97 88 95 95 98 83 82 78 81 89 65 75 56 49 50 41 40 39 39 40 38 36 23 23 27 28 28 28 28 31
100 97 86 96 92 97 93 85 80 70 89 77 80 83 97 85 83 90 87 84 85 91 97 98 96 94 85 48 48 64 46 40 38 36 38 43 30 25 31 31 31 36 42 42 39

GFSSW_850_rhum_210.txt.gz
RH
39 36 34 34 28 27 26 24 28 39 46 43 40 37 35 30 26 31 31 29 24 20 22 25 26 19 17 15 14 12 13 13 10 9 9 9 9 9 10 11 12 17 19 46 65
38 36 31 31 29 30 31 31 34 45 46 40 38 35 33 31 25 34 28 26 24 22 22 25 20 17 15 14 14 12 14 11 9 8 9 8 9 9 9 9 10 14 18 43 59
35 34 31 28 30 33 37 40 44 47 44 40 39 37 33 30 36 29 27 25 25 23 27 28 21 19 16 13 12 12 14 10 10 10 10 10 9 9 10 10 9 9 14 36 54
34 33 30 29 31 36 41 45 47 46 43 41 40 36 35 32 31 29 28 29 24 23 27 25 21 18 17 15 12 14 12 11 10 11 11 11 11 11 11 10 10 10 11 29 40
35 31 29 29 32 37 43 47 48 43 42 42 38 37 35 39 30 32 32 30 25 29 26 22 20 18 18 15 13 13 13 13 11 12 12 12 12 13 12 12 13 14 14 14 16
34 32 30 29 32 38 43 45 46 42 40 39 40 37 47 39 33 32 34 30 26 25 24 22 22 21 19 17 16 14 14 14 14 13 13 13 13 13 11 13 14 16 16 16 16
33 31 31 29 31 38 44 44 44 41 40 39 40 41 52 42 35 32 34 30 26 25 24 24 24 23 22 21 18 17 19 15 14 13 13 13 15 13 12 15 16 14 14 18 19
33 32 31 31 31 37 45 46 42 41 40 40 42 43 50 38 29 33 30 27 26 25 25 25 25 24 23 21 20 19 17 21 12 11 13 13 18 11 11 13 13 13 12 14 17
34 32 32 30 30 35 46 48 41 41 45 42 44 56 39 35 32 31 31 26 25 27 26 26 27 25 23 23 25 21 22 16 12 12 13 15 17 12 12 13 14 14 14 13 15
37 31 32 30 30 35 49 50 41 46 47 45 44 47 42 30 33 34 33 32 30 29 28 27 25 26 23 24 28 22 20 16 14 12 14 16 16 13 12 11 12 12 13 13 15
37 36 33 31 31 40 57 50 48 46 50 47 41 38 36 36 35 30 30 33 31 30 31 25 27 27 21 18 18 16 16 15 13 10 13 16 16 14 12 12 12 12 13 14 14
42 39 36 33 35 46 67 74 58 61 60 51 46 42 36 33 26 24 24 23 23 28 23 29 32 21 16 15 16 17 18 19 15 13 14 15 16 13 12 11 11 11 12 15 17
53 46 42 38 42 52 73 78 63 63 58 42 34 34 25 29 24 21 22 21 21 23 23 28 21 17 17 17 20 19 20 18 17 16 15 16 17 14 10 10 13 14 17 19 20
64 56 52 47 50 68 77 69 68 63 60 32 28 24 27 29 24 22 24 23 19 20 20 21 16 20 18 20 18 22 15 17 17 21 26 16 26 17 13 12 14 18 22 24 30
67 69 58 55 87 81 72 74 68 68 77 25 26 28 24 26 20 22 23 21 19 18 20 22 20 19 21 21 18 20 15 17 18 21 24 20 22 17 12 12 15 22 25 30 34
67 78 74 76 75 92 80 74 71 74 80 37 27 26 25 22 19 19 21 21 19 18 18 19 16 17 18 16 16 15 17 18 21 24 34 22 20 18 13 13 14 23 29 34 40
80 77 87 81 87 81 88 81 92 93 41 37 33 25 23 22 19 17 20 23 25 31 30 22 21 17 16 20 18 18 22 34 34 37 33 17 19 17 12 11 19 26 30 34 38
92 90 86 98 95 92 89 94 97 67 56 29 26 26 30 24 23 21 21 25 21 23 28 30 34 20 16 20 22 22 23 34 42 42 34 22 27 19 14 13 17 23 28 30 31
100 100 98 95 100 98 93 99 84 73 54 51 42 36 31 25 25 27 29 29 26 25 34 34 33 18 17 16 17 22 26 20 30 29 38 27 21 15 19 22 21 21 28 29 27
100 100 100 95 90 100 99 93 72 49 51 49 58 44 48 35 35 37 34 26 27 23 23 29 40 25 22 18 17 20 18 31 29 46 47 30 26 25 25 24 27 26 29 29 30
100 100 97 98 100 99 96 82 68 52 50 61 64 57 50 44 40 44 40 31 30 28 23 24 31 32 26 30 30 24 26 25 25 30 44 47 35 27 26 26 28 29 31 30 25
100 100 100 92 98 93 90 66 54 52 48 51 56 59 60 53 52 50 53 46 40 42 40 51 55 59 46 33 27 26 29 28 39 38 36 41 49 23 28 24 26 25 24 23 22
100 97 100 100 97 95 78 69 59 57 61 62 64 55 52 58 76 69 61 49 50 51 65 64 89 76 47 34 29 32 28 24 26 31 40 54 47 25 24 25 23 24 26 23 19
100 100 100 100 100 78 81 83 81 63 58 58 63 61 66 72 66 85 77 63 62 73 75 64 81 61 65 48 42 55 43 36 35 46 44 44 44 31 30 31 29 30 26 20 20
99 98 93 100 97 95 78 75 85 89 67 62 74 69 71 89 83 93 78 88 83 86 84 84 99 68 58 49 48 48 45 42 49 45 50 40 36 30 30 32 32 30 26 18 21
99 99 100 98 79 94 93 83 78 77 79 85 80 72 71 80 78 92 79 93 88 85 80 83 96 75 80 59 55 58 49 44 43 42 43 44 46 35 27 27 28 27 18 21 25
98 99 97 88 89 95 90 84 78 68 74 61 69 75 86 77 66 77 84 85 84 86 90 96 98 99 94 57 56 78 58 50 44 41 41 52 44 37 33 30 25 21 26 28 39

GFSSW_850_rhum_216.txt.gz
RH
35 31 29 28 27 31 35 38 39 38 38 35 33 34 31 28 26 24 23 29 29 27 23 24 26 24 24 25 19 17 27 32 23 18 15 11 11 10 10 10 13 26 33 29 37
34 31 28 27 27 31 35 38 38 37 36 35 32 32 31 28 31 29 30 30 30 25 22 19 19 23 22 22 20 21 30 24 18 15 14 12 12 12 11 11 20 31 44 35 47
34 31 28 26 26 30 34 38 39 37 36 35 34 32 32 29 36 29 30 28 26 26 21 23 25 25 25 21 20 20 25 19 17 14 13 13 13 13 14 15 15 41 52 48 62
32 30 28 26 25 28 33 37 40 38 36 35 34 33 33 31 39 31 31 31 30 25 22 24 24 24 25 26 21 23 19 18 16 15 14 13 12 13 14 14 15 20 34 49 58
31 30 28 27 25 26 30 35 38 39 38 36 37 37 36 33 35 33 32 30 28 27 26 26 26 25 28 26 24 24 21 21 19 17 16 14 14 14 13 13 15 27 46 44 39
31 29 28 26 24 26 28 32 36 39 39 38 40 42 40 42 36 36 33 32 28 26 26 25 26 24 24 26 28 24 24 23 20 19 19 17 17 16 14 13 16 25 39 38 39
32 29 28 25 24 24 26 30 33 37 40 39 41 46 40 35 37 28 32 31 27 26 25 26 25 24 25 29 24 23 26 25 21 19 19 17 20 20 14 15 14 19 23 26 30
34 28 28 25 25 23 24 27 31 34 38 39 43 48 41 37 33 30 28 27 26 26 26 26 26 26 26 25 26 29 28 31 22 19 18 18 27 19 14 15 15 14 14 14 19
34 31 28 26 25 23 22 23 27 34 39 45 44 48 44 39 34 32 33 33 29 27 28 26 26 27 28 34 39 33 37 31 19 18 18 20 24 18 16 16 16 15 14 16 22
34 30 31 26 26 23 21 21 26 42 47 46 48 49 35 37 38 38 38 34 29 29 29 28 28 37 41 42 46 33 27 22 20 15 16 20 22 20 15 15 15 15 14 20 27
28 30 29 30 31 23 21 24 51 44 52 46 39 40 42 38 41 42 39 33 34 34 39 32 42 48 40 38 35 26 21 25 23 19 19 21 23 21 17 17 17 16 16 26 30
38 34 32 33 33 27 24 50 67 62 67 47 37 44 40 46 49 41 25 29 37 47 38 42 49 38 33 32 24 21 24 28 24 20 19 23 25 22 21 18 15 14 21 32 40
48 50 46 38 39 30 28 32 78 70 67 52 38 44 36 44 34 25 24 26 33 44 45 50 37 30 26 21 23 24 25 26 25 23 21 23 26 23 19 17 15 16 20 32 43
53 54 55 52 47 35 44 70 70 64 82 57 39 27 28 25 30 24 22 24 22 36 37 42 32 24 24 25 25 30 24 21 22 25 32 24 41 28 21 22 29 30 35 53 63
59 62 60 60 46 68 75 71 66 66 65 28 27 25 25 28 25 22 23 23 28 25 27 32 25 29 29 26 23 29 19 20 21 26 30 30 38 33 25 23 33 47 51 59 64
72 65 73 65 57 79 76 69 65 85 87 47 31 31 30 27 24 22 22 23 23 24 24 26 21 25 27 24 22 19 22 27 32 36 47 35 35 40 30 21 35 43 55 58 61
93 90 72 63 54 84 78 71 85 98 44 46 39 35 34 35 29 26 28 29 32 35 38 31 30 25 21 25 21 23 35 52 54 56 54 32 37 38 27 25 32 50 55 55 54
90 97 94 67 71 73 83 84 98 69 63 42 41 38 40 33 33 30 29 34 31 31 41 43 48 29 24 27 29 31 37 56 53 56 51 33 43 32 30 37 32 50 49 47 46
100 100 100 89 83 64 86 95 81 66 60 53 46 54 53 43 34 32 33 31 29 32 40 49 48 30 23 20 23 27 35 30 42 44 57 48 36 27 31 45 49 50 47 47 48
100 100 100 92 82 98 94 79 72 55 55 50 59 55 64 52 45 42 41 34 29 34 34 37 52 35 31 23 23 27 26 36 46 53 63 52 43 40 35 42 51 52 50 48 44
100 100 99 96 90 100 95 83 62 52 50 64 64 63 60 53 49 48 42 41 38 45 44 45 43 43 32 34 38 36 33 32 38 57 60 67 57 40 40 40 50 49 39 38 35
100 98 96 100 98 93 90 75 58 55 54 60 61 63 68 62 56 60 55 44 44 47 53 51 66 69 46 39 41 41 46 38 53 55 59 62 50 26 38 39 42 43 37 29 24
97 94 100 100 96 95 84 76 68 66 57 60 70 63 58 63 70 66 59 55 50 57 66 58 73 92 74 56 48 54 51 49 52 55 58 66 60 38 34 39 36 30 28 26 24
100 100 100 100 87 89 85 86 87 66 65 60 62 64 68 68 67 70 74 74 63 62 50 48 81 77 82 67 58 65 58 55 57 86 68 60 53 37 38 41 38 33 30 28 27
100 98 88 100 98 93 89 86 87 88 66 62 74 65 71 83 73 76 73 84 77 85 78 76 87 78 79 70 66 68 67 66 77 72 76 61 59 49 40 42 42 30 29 28 30
98 97 100 97 79 96 95 89 85 80 82 79 73 68 66 74 71 77 67 74 78 95 94 90 91 89 92 78 76 85 75 74 72 67 65 62 62 42 38 36 39 35 32 34 36
99 96 88 85 90 93 88 82 82 76 76 70 70 70 78 74 58 56 61 62 75 76 98 98 98 99 94 82 81 96 87 76 67 63 61 74 55 42 47 44 41 36 36 37 47

GFSSW_850_rhum_219.txt.gz
RH
33 30 27 26 26 30 33 36 36 37 35 34 33 31 30 27 26 23 22 26 30 27 24 24 24 25 23 23 24 19 30 34 25 19 18 13 12 10 11 30 28 40 39 35 40
35 30 28 26 25 28 32 35 36 36 34 34 32 31 30 27 33 27 27 30 30 27 21 22 20 23 22 23 22 23 32 26 22 17 16 14 13 12 13 14 21 45 38 35 43
34 31 28 27 25 26 30 34 36 36 35 33 32 32 31 28 33 29 30 29 28 28 25 22 26 25 26 22 22 22 29 23 20 19 17 16 14 13 14 16 14 29 31 41 53
34 31 30 26 26 25 27 31 34 36 35 34 32 32 32 30 39 33 32 32 31 27 25 25 26 25 28 27 24 26 22 21 20 18 18 16 13 14 15 13 14 18 27 36 46
35 31 30 26 25 25 26 28 31 35 37 36 33 34 34 33 35 34 34 33 29 27 27 26 26 26 28 28 26 28 24 23 22 21 20 17 15 15 14 13 14 22 34 35 37
36 32 29 26 24 24 24 26 28 31 34 36 35 35 40 40 33 37 35 34 31 27 26 26 26 25 26 28 29 26 27 26 22 20 20 20 20 17 15 14 17 27 24 31 35
36 33 29 27 24 23 22 23 26 28 32 34 35 39 44 31 37 35 29 27 28 27 26 26 26 25 26 30 26 26 31 28 23 20 22 19 22 21 15 16 17 31 32 31 29
36 34 30 28 25 22 21 20 21 24 29 32 35 44 41 34 34 29 29 30 27 26 27 26 26 26 27 26 29 31 30 34 23 19 20 19 26 21 14 15 14 18 35 40 35
37 34 32 30 26 22 20 18 19 22 27 34 40 47 41 37 34 34 32 34 35 28 27 28 27 28 30 37 42 37 39 33 26 18 20 21 25 20 16 17 17 16 20 21 22
37 34 31 30 25 22 20 18 18 28 45 46 47 50 34 32 37 38 38 38 36 30 30 29 30 40 45 46 47 36 29 28 23 19 21 22 23 22 16 17 16 16 19 18 20
34 33 32 30 29 24 22 19 36 37 50 41 36 45 36 34 37 38 41 40 35 34 42 35 45 52 44 42 37 39 31 26 25 21 20 22 24 22 17 19 20 16 16 17 25
32 33 34 35 33 30 28 26 68 61 71 42 28 40 39 43 52 44 36 30 39 48 41 45 54 42 38 38 40 37 27 29 26 22 20 23 25 22 22 20 15 15 16 17 33
43 44 46 45 46 36 32 29 51 73 72 56 40 45 37 45 51 35 25 30 39 49 48 55 40 33 39 35 25 25 27 28 28 24 24 25 29 25 20 18 16 16 19 21 39
53 52 52 53 52 42 37 57 66 68 76 50 50 39 35 30 29 26 25 24 27 44 48 50 41 32 26 26 26 30 26 26 23 27 35 24 41 30 24 24 22 35 30 40 57
61 62 60 61 49 45 65 80 66 70 52 21 32 28 26 27 25 25 23 24 28 27 36 38 29 38 36 30 24 29 21 21 22 27 31 32 39 33 27 25 28 49 57 65 68
64 75 75 67 62 61 75 69 67 84 87 40 30 31 30 28 26 24 23 23 24 26 28 30 23 27 29 25 25 21 23 32 41 39 49 37 39 41 33 24 31 52 67 72 75
78 81 78 62 56 79 78 71 88 94 47 39 41 37 34 37 31 27 29 31 33 36 37 33 31 24 22 26 24 26 35 52 56 56 56 35 41 40 28 27 29 57 69 75 69
94 100 94 74 66 75 78 80 97 63 59 45 41 39 42 38 34 31 32 34 31 32 42 44 46 33 28 30 34 33 36 56 55 60 53 37 45 36 28 40 35 50 66 67 60
91 100 100 90 80 66 80 98 82 67 59 55 47 50 48 44 35 34 37 37 31 32 38 51 50 33 24 23 25 31 38 34 40 48 63 50 40 29 38 53 58 61 62 61 55
100 100 99 97 91 92 93 78 73 52 51 52 59 54 63 57 47 43 43 33 29 33 30 38 54 36 34 24 24 28 30 42 49 56 64 55 51 43 39 48 61 65 61 58 51
100 99 97 81 99 100 93 82 65 52 49 64 55 56 60 57 53 55 47 38 38 44 40 43 45 46 37 39 43 39 35 33 41 56 62 68 60 43 38 45 59 58 57 50 50
100 97 99 100 98 91 91 70 55 58 44 67 62 60 66 60 57 60 57 43 40 46 51 49 61 66 51 34 38 38 45 41 52 58 65 62 50 30 38 40 52 52 47 47 50
97 97 100 99 95 94 77 73 65 66 56 68 73 67 61 65 68 64 58 48 45 59 64 62 73 88 76 59 50 55 53 47 52 62 60 69 61 37 35 37 38 48 42 42 39
98 100 100 100 84 83 81 87 80 63 58 52 59 68 69 74 71 68 74 65 63 63 51 48 77 76 72 64 60 65 57 55 59 90 73 64 56 48 43 45 43 41 39 33 28
100 98 91 99 98 93 75 79 89 87 66 58 64 61 60 69 68 72 74 83 74 79 69 68 80 79 65 65 68 71 70 67 68 67 90 68 66 53 53 47 44 33 34 30 29
99 99 100 98 74 96 89 83 79 83 86 82 80 74 72 72 66 70 66 73 75 97 90 89 89 82 82 79 75 83 75 69 66 65 67 71 75 54 50 46 38 36 35 33 32
98 98 98 88 95 95 89 81 80 72 68 66 73 77 78 70 57 53 55 59 72 76 97 98 96 99 94 74 83 97 84 74 71 67 66 80 64 52 55 50 47 43 39 37 35

GFSSW_850_rhum_222.txt.gz
RH
36 34 31 27 27 28 31 33 34 33 32 32 30 31 27 26 29 24 22 26 30 28 24 24 23 25 25 24 24 20 31 34 26 21 20 16 18 12 13 33 32 37 41 40 38
36 35 30 29 27 26 29 32 34 33 32 31 30 29 30 26 33 29 28 29 30 28 27 22 24 25 24 24 23 25 33 27 23 18 20 19 18 14 14 14 20 34 40 39 42
36 36 32 29 27 26 26 29 32 34 33 31 31 30 29 27 30 31 30 30 29 30 27 22 26 26 26 24 23 25 31 24 22 20 20 20 17 14 15 15 14 17 18 34 50
37 35 34 30 28 26 26 27 29 31 33 32 30 30 29 27 39 33 33 33 31 30 26 27 27 26 29 28 25 28 24 22 22 21 22 19 16 15 15 13 13 14 17 26 44
36 36 33 30 28 26 24 25 26 28 30 31 31 32 30 33 32 33 33 34 32 28 27 26 26 27 30 29 28 29 27 25 24 24 23 20 20 17 16 14 14 14 22 24 32
38 37 34 30 30 26 24 22 23 25 28 30 31 33 36 44 32 35 28 30 32 27 26 26 26 26 28 29 30 28 29 28 24 22 24 22 21 19 17 16 15 16 19 25 30
39 37 34 32 28 27 23 21 20 21 22 26 28 33 40 29 32 37 27 27 28 27 26 26 26 26 27 30 28 28 34 31 26 23 22 24 25 24 16 17 17 18 19 26 33
38 40 36 33 28 26 22 19 18 19 19 21 24 33 39 33 35 34 28 32 29 26 27 27 26 27 28 28 30 34 33 37 24 22 21 21 29 21 19 18 18 18 28 41 39
41 41 38 34 29 24 21 18 17 17 18 22 32 42 37 34 37 33 31 32 35 34 31 28 29 29 31 40 43 40 40 35 30 19 20 21 27 20 18 17 17 17 18 31 34
40 38 37 35 30 25 20 17 17 21 33 41 43 50 33 29 36 35 34 36 38 38 31 30 31 43 48 45 45 39 35 29 30 21 21 21 24 23 16 16 16 15 16 18 19
40 36 34 35 30 24 21 18 28 30 44 33 28 42 34 31 32 34 36 37 39 34 44 37 46 53 46 44 38 40 42 40 28 24 22 23 26 24 18 19 19 16 16 17 17
40 37 33 30 30 28 28 26 61 60 71 29 26 31 36 43 49 42 44 39 40 50 42 48 58 45 40 40 42 44 42 34 28 25 22 26 26 24 23 21 18 17 16 16 16
34 38 40 39 37 36 33 29 49 76 73 48 41 45 40 45 48 42 32 31 42 52 52 58 45 36 44 43 42 31 31 28 29 25 26 26 32 27 22 20 17 17 19 19 19
42 48 52 50 48 40 37 37 50 70 63 34 51 48 39 46 33 32 26 26 31 48 53 53 44 40 33 38 34 30 27 28 25 28 38 25 44 31 25 27 24 21 30 26 26
56 60 61 57 51 40 53 70 70 66 47 17 43 31 34 27 26 27 25 24 30 33 40 37 34 41 44 38 27 30 25 23 24 29 32 33 38 33 29 27 25 28 43 56 62
62 72 71 66 60 54 70 77 65 73 73 35 31 31 29 28 28 26 25 24 26 29 30 33 25 30 33 31 26 23 24 37 46 41 51 39 39 40 32 27 24 43 46 58 70
70 75 75 60 51 61 73 72 87 86 42 28 43 38 35 38 32 29 31 32 36 38 36 32 32 25 24 26 25 29 36 54 58 57 59 38 44 42 29 29 28 30 41 69 84
80 84 83 67 61 70 79 78 98 63 56 43 42 41 42 41 37 34 34 36 32 34 45 45 42 36 29 30 36 35 38 59 59 60 54 42 50 38 30 30 45 36 37 66 80
88 100 100 81 80 68 76 96 81 67 54 51 50 47 48 42 38 35 40 38 33 34 36 50 45 34 28 26 28 35 41 36 44 50 63 50 41 33 31 43 59 65 66 75 76
98 100 100 87 88 80 89 82 74 53 51 54 58 53 60 54 45 46 44 35 31 34 28 36 46 38 33 26 26 30 32 43 52 57 68 62 54 45 35 38 60 71 75 75 70
100 99 98 89 99 100 94 82 66 49 46 58 57 57 60 56 53 56 47 35 32 42 33 40 46 45 36 42 43 37 38 40 45 62 65 75 61 47 38 36 48 61 63 65 62
100 97 100 86 98 93 92 69 55 58 48 61 63 56 64 61 63 62 53 44 38 46 47 48 59 66 44 39 45 39 42 42 54 58 67 67 56 34 35 36 43 47 51 50 55
98 96 100 96 95 95 81 79 62 66 56 66 68 70 64 65 65 66 60 46 44 51 57 58 70 82 77 59 55 55 53 45 54 63 57 68 58 40 38 38 37 41 39 44 50
99 100 100 100 85 83 79 86 86 62 55 55 54 64 74 75 70 60 69 60 58 57 56 48 75 72 70 61 60 67 63 58 56 82 67 64 58 45 42 49 45 37 34 38 45
100 98 94 100 97 87 79 77 86 85 61 52 58 53 58 66 70 71 71 72 69 74 70 67 72 79 70 67 66 63 62 60 60 55 70 55 58 47 51 55 51 39 38 37 42
98 98 100 99 78 95 87 84 77 80 76 78 69 59 56 60 56 57 62 76 65 92 81 89 75 84 82 68 72 76 66 65 61 58 60 61 65 47 43 45 50 52 49 44 37
100 100 94 87 90 92 89 84 76 65 71 63 66 68 70 59 48 45 46 51 67 74 93 96 93 100 94 77 78 97 81 70 67 62 62 77 61 47 50 54 56 54 53 50 44